User: anonymous   Login
Location: Rometta
(44.2000°N, 10.0500°E)
Time: 10:43:25
(UTC+00:00)
Language:

CZ-4B R/B - Orbit

View from above orbital plane
View from above orbital plane
View from above satellite
View from above satellite

Ground track
Ground track

The orbit data is extracted from the following two-line orbital elements,

1 29093U 06015B   21101.14745718  .00003264  00000-0  60636-4 0  9997
2 29093  97.6342 289.6853 0049319 324.1224  35.6716 15.48419242832619
Epoch (UTC): 11 April 2021 03:32:20
Eccentricity: 0.0049319
inclination: 97.6342°
perigee height: 388 km
apogee height: 455 km
right ascension of ascending node: 289.6853°
argument of perigee: 324.1224°
revolutions per day: 15.48419242
mean anomaly at epoch: 35.6716°
orbit number at epoch: 83261

The dashed part of the orbit path shows where the satellite is in the earth's shadow,  

DLR